• In Germany
  • List of Countries
  • For 7 days
  • Water Temperature
  • Satellite Maps
  • Weather Map
  • Weather Widgets
  • user-avatar
    Login

    Hourly Weather Biskira

    Today, 26 June, Monday

    Time Temperature Precipitation Wind Pressure Humidity
    00:00 +36°C° 0 mm 2 mps 751 mmHg 22%
    01:00 +35°C° 0 mm 2 mps 751 mmHg 23%
    02:00 +35°C° 0 mm 2 mps 751 mmHg 23%
    03:00 +34°C° 0 mm 2 mps 751 mmHg 24%
    04:00 +35°C° 0 mm 2 mps 751 mmHg 23%
    05:00 +35°C° 0 mm 2 mps 751 mmHg 23%
    06:00 +36°C° 0 mm 2 mps 751 mmHg 22%
    07:00 +37°C° 0 mm 2 mps 751 mmHg 20%
    08:00 +39°C° 0 mm 3 mps 751 mmHg 18%
    09:00 +40°C° 0 mm 3 mps 751 mmHg 16%
    10:00 +42°C° 0 mm 4 mps 751 mmHg 14%
    11:00 +44°C° 0 mm 4 mps 751 mmHg 13%
    12:00 +46°C° 0 mm 5 mps 750 mmHg 12%
    13:00 +47°C° 0 mm 4 mps 750 mmHg 11%
    14:00 +47°C° 0 mm 4 mps 749 mmHg 10%
    15:00 +48°C° 0 mm 4 mps 749 mmHg 9%
    16:00 +47°C° 0 mm 4 mps 748 mmHg 10%
    17:00 +47°C° 0 mm 4 mps 748 mmHg 10%
    18:00 +47°C° 0 mm 4 mps 748 mmHg 10%
    19:00 +45°C° 0 mm 5 mps 749 mmHg 11%
    20:00 +43°C° 0 mm 5 mps 749 mmHg 12%
    21:00 +42°C° 0 mm 5 mps 750 mmHg 14%
    22:00 +41°C° 0 mm 4 mps 750 mmHg 14%
    23:00 +40°C° 0 mm 4 mps 750 mmHg 15%

    Tomorrow, 27 June, Tuesday

    Time Temperature Precipitation Wind Pressure Humidity
    00:00 +40°C° 0 mm 4 mps 751 mmHg 16%
    01:00 +38°C° 0 mm 4 mps 750 mmHg 17%
    02:00 +37°C° 0 mm 4 mps 750 mmHg 18%
    03:00 +36°C° 0 mm 3 mps 750 mmHg 19%
    04:00 +37°C° 0 mm 3 mps 750 mmHg 18%
    05:00 +37°C° 0 mm 3 mps 750 mmHg 18%
    06:00 +37°C° 0 mm 3 mps 751 mmHg 18%
    07:00 +39°C° 0 mm 2 mps 751 mmHg 17%
    08:00 +40°C° 0 mm 2 mps 751 mmHg 15%
    09:00 +41°C° 0 mm 2 mps 751 mmHg 14%
    10:00 +42°C° 0 mm 2 mps 750 mmHg 13%
    11:00 +45°C° 0 mm 2 mps 750 mmHg 12%
    12:00 +46°C° 0 mm 2 mps 750 mmHg 12%
    13:00 +46°C° 0 mm 3 mps 749 mmHg 11%
    14:00 +48°C° 0 mm 4 mps 749 mmHg 10%
    15:00 +49°C° 0 mm 5 mps 748 mmHg 10%
    16:00 +48°C° 0 mm 5 mps 748 mmHg 10%
    17:00 +48°C° 0 mm 5 mps 748 mmHg 10%
    18:00 +48°C° 0 mm 6 mps 748 mmHg 9%
    19:00 +46°C° 0 mm 5 mps 749 mmHg 11%
    20:00 +45°C° 0 mm 5 mps 749 mmHg 12%
    21:00 +42°C° 0 mm 4 mps 749 mmHg 13%
    22:00 +41°C° 0 mm 4 mps 749 mmHg 14%
    23:00 +40°C° 0 mm 3 mps 749 mmHg 15%

    Day after tomorrow, 28 June, Wednesday

    Time Temperature Precipitation Wind Pressure Humidity
    00:00 +39°C° 0 mm 3 mps 749 mmHg 16%
    01:00 +38°C° 0 mm 3 mps 749 mmHg 16%
    02:00 +37°C° 0 mm 2 mps 749 mmHg 17%
    03:00 +36°C° 0 mm 2 mps 749 mmHg 17%
    04:00 +37°C° 0 mm 2 mps 749 mmHg 17%
    05:00 +37°C° 0 mm 2 mps 749 mmHg 16%
    06:00 +38°C° 0 mm 2 mps 749 mmHg 15%
    07:00 +39°C° 0 mm 3 mps 749 mmHg 14%
    08:00 +42°C° 0 mm 3 mps 749 mmHg 12%
    09:00 +44°C° 0 mm 4 mps 749 mmHg 10%
    10:00 +46°C° 0 mm 5 mps 748 mmHg 10%
    11:00 +47°C° 0 mm 6 mps 748 mmHg 9%
    12:00 +48°C° 0 mm 6 mps 748 mmHg 8%
    13:00 +49°C° 0 mm 7 mps 747 mmHg 8%
    14:00 +50°C° 0 mm 7 mps 747 mmHg 7%
    15:00 +50°C° 0 mm 7 mps 746 mmHg 7%
    16:00 +49°C° 0 mm 7 mps 746 mmHg 7%
    17:00 +48°C° 0 mm 6 mps 746 mmHg 7%
    18:00 +47°C° 0 mm 6 mps 746 mmHg 7%
    19:00 +45°C° 0 mm 6 mps 747 mmHg 9%
    20:00 +43°C° 0 mm 5 mps 747 mmHg 11%
    21:00 +41°C° 0 mm 5 mps 748 mmHg 12%
    22:00 +40°C° 0 mm 5 mps 748 mmHg 16%
    23:00 +39°C° 0 mm 6 mps 748 mmHg 19%

    29 June, Thursday

    Time Temperature Precipitation Wind Pressure Humidity
    00:00 +36°C° 0 mm 7 mps 748 mmHg 23%
    01:00 +36°C° 0 mm 6 mps 748 mmHg 24%
    02:00 +35°C° 0 mm 6 mps 748 mmHg 26%
    03:00 +34°C° 0 mm 6 mps 748 mmHg 27%
    04:00 +34°C° 0 mm 6 mps 748 mmHg 27%
    05:00 +34°C° 0 mm 6 mps 748 mmHg 26%
    06:00 +34°C° 0 mm 6 mps 748 mmHg 26%
    07:00 +36°C° 0 mm 6 mps 749 mmHg 22%
    08:00 +38°C° 0 mm 6 mps 749 mmHg 18%
    09:00 +40°C° 0 mm 5 mps 749 mmHg 14%
    10:00 +41°C° 0 mm 5 mps 749 mmHg 13%
    11:00 +42°C° 0 mm 4 mps 748 mmHg 12%
    12:00 +43°C° 0 mm 3 mps 748 mmHg 11%
    13:00 +44°C° 0 mm 3 mps 748 mmHg 10%
    14:00 +44°C° 0 mm 3 mps 747 mmHg 10%
    15:00 +45°C° 0 mm 3 mps 747 mmHg 9%
    16:00 +44°C° 0 mm 3 mps 747 mmHg 9%
    17:00 +44°C° 0 mm 3 mps 747 mmHg 9%
    18:00 +44°C° 0 mm 3 mps 747 mmHg 10%
    19:00 +43°C° 0 mm 3 mps 747 mmHg 11%
    20:00 +42°C° 0 mm 3 mps 747 mmHg 12%
    21:00 +39°C° 0 mm 3 mps 748 mmHg 13%
    22:00 +39°C° 0 mm 3 mps 748 mmHg 13%
    23:00 +38°C° 0 mm 3 mps 747 mmHg 14%

    30 June, Friday

    Time Temperature Precipitation Wind Pressure Humidity
    00:00 +38°C° 0 mm 3 mps 747 mmHg 15%
    01:00 +37°C° 0 mm 3 mps 747 mmHg 17%
    02:00 +36°C° 0 mm 3 mps 747 mmHg 19%
    03:00 +35°C° 0 mm 3 mps 746 mmHg 21%
    04:00 +35°C° 0 mm 4 mps 747 mmHg 25%
    05:00 +35°C° 0 mm 4 mps 747 mmHg 28%
    06:00 +35°C° 0 mm 4 mps 747 mmHg 32%
    07:00 +36°C° 0 mm 5 mps 747 mmHg 29%
    08:00 +39°C° 0 mm 5 mps 747 mmHg 26%
    09:00 +40°C° 0 mm 6 mps 747 mmHg 23%
    10:00 +42°C° 0 mm 6 mps 747 mmHg 19%
    11:00 +45°C° 0 mm 6 mps 746 mmHg 15%
    12:00 +47°C° 0 mm 6 mps 746 mmHg 11%
    13:00 +49°C° 0 mm 7 mps 745 mmHg 9%
    14:00 +50°C° 0 mm 7 mps 745 mmHg 8%
    15:00 +51°C° 0 mm 8 mps 744 mmHg 6%
    16:00 +50°C° 0 mm 8 mps 744 mmHg 6%
    17:00 +50°C° 0 mm 8 mps 744 mmHg 7%
    18:00 +49°C° 0 mm 8 mps 744 mmHg 8%
    19:00 +45°C° 0 mm 9 mps 745 mmHg 15%
    20:00 +42°C° 0 mm 9 mps 746 mmHg 23%
    21:00 +38°C° 0 mm 10 mps 747 mmHg 31%
    22:00 +37°C° 0 mm 10 mps 747 mmHg 33%
    23:00 +34°C° 0 mm 10 mps 748 mmHg 35%

    1 July, Saturday

    Time Temperature Precipitation Wind Pressure Humidity
    00:00 +33°C° 0 mm 10 mps 748 mmHg 38%
    01:00 +32°C° 0 mm 10 mps 749 mmHg 37%
    02:00 +32°C° 0 mm 9 mps 749 mmHg 36%
    03:00 +31°C° 0 mm 8 mps 749 mmHg 35%
    04:00 +31°C° 0 mm 8 mps 749 mmHg 37%
    05:00 +31°C° 0 mm 8 mps 749 mmHg 39%
    06:00 +31°C° 0 mm 8 mps 749 mmHg 40%
    07:00 +32°C° 0 mm 7 mps 750 mmHg 35%
    08:00 +34°C° 0 mm 6 mps 750 mmHg 31%
    09:00 +35°C° 0 mm 6 mps 750 mmHg 26%
    10:00 +38°C° 0 mm 6 mps 750 mmHg 23%
    11:00 +39°C° 0 mm 5 mps 750 mmHg 20%
    12:00 +40°C° 0 mm 5 mps 750 mmHg 17%
    13:00 +41°C° 0 mm 5 mps 750 mmHg 16%
    14:00 +41°C° 0 mm 5 mps 750 mmHg 15%
    15:00 +42°C° 0 mm 5 mps 750 mmHg 14%
    16:00 +41°C° 0 mm 6 mps 750 mmHg 18%
    17:00 +40°C° 0 mm 7 mps 750 mmHg 21%
    18:00 +38°C° 0 mm 8 mps 750 mmHg 24%
    19:00 +36°C° 0 mm 7 mps 751 mmHg 28%
    20:00 +34°C° 0 mm 7 mps 752 mmHg 31%
    21:00 +32°C° 0 mm 7 mps 752 mmHg 35%
    22:00 +32°C° 0 mm 7 mps 753 mmHg 37%
    23:00 +30°C° 0 mm 6 mps 753 mmHg 39%
    Show more